Regional Weather Roundup
Issued by NWS Kansas City/Pleasant Hill, MO

Home | Current Version | Previous Version | Graphics & Text | Print | Product List | Glossary Off
Versions: 1 2 3 4 5 6 7 8 9 10 11 12 13 14 15 16 17 18 19 20 21 22 23 24 25 26 27 28 29 30 31 32 33 34 35 36 37 38 39 40 41 42 43 44 45 46 47 48 49 50

000
ASUS43 KEAX 262310
RWREAX

WEATHER ROUNDUP FOR EASTERN KANSAS AND NORTHWEST MISSOURI
NATIONAL WEATHER SERVICE KANSAS CITY/PLEASANT HILL MO
600 PM CDT TUE JUL 26 2016

KSZ040-057-103>105-MOZ028-029-037-043-270000-
...KANSAS CITY METROPOLITAN AREA...

CITY           SKY/WX    TMP DP  RH WIND       PRES   REMARKS
K.C. INTL      MOSUNNY   86  66  51 E10       29.99S
K.C. DOWNTOWN  SUNNY     87  66  49 E7        29.97R
LEES SUMMIT    SUNNY     85  67  54 E7        30.00R
OLATHE - IXD   SUNNY     87  66  49 E9        29.99R
OLATHE - OJC   SUNNY     86  65  49 E6        29.99R
LAWRENCE       SUNNY     87  69  54 E7        29.97S HX  91

$$

MOZ001>008-011>017-020>025-030>033-038>040-044>046-053-054-270000-
...NORTHERN AND CENTRAL MISSOURI...

CITY           SKY/WX    TMP DP  RH WIND       PRES   REMARKS
ST. JOSEPH     MOSUNNY   88  67  49 VRB7G20   29.98S HX  91
MOSBY          CLEAR     86  64  48 SE5       29.99R
WHITEMAN AFB   MOSUNNY   86  69  55 E9        29.98S HX  90
CLINTON        CLOUDY    84  72  65 CALM      29.98R
SEDALIA        MOSUNNY   87  69  54 E8        30.00S HX  91
WARSAW         NOT AVBL
CHILLICOTHE      N/A     87  67  51 SE3       30.00S HX  90
KIRKSVILLE     SUNNY     86  64  47 NE7       30.02R

$$

MOZ041-047>049-056>058-063>065-088>090-097-270000-
...EASTERN AND SOUTHERN MISSOURI...

CITY           SKY/WX    TMP DP  RH WIND       PRES   REMARKS
ST. LOUIS INTL PTSUNNY   87  74  64 S9        29.98S HX  95
SPIRIT OF STL  CLOUDY    85  76  74 S9        29.96S HX  94
COLUMBIA       SUNNY     86  73  65 NE6       29.99S HX  93
JEFFERSON CITY SUNNY     88  72  58 E6        29.97R HX  94
ROLLA          CLOUDY    74  71  91 SW5       30.00S
OSAGE BEACH    SUNNY     87  73  62 E7        29.99R HX  94
SPRINGFIELD    TSTM      76  71  85 E5        30.02R
BRANSON        CLOUDY    77  75  94 CALM      30.03R
JOPLIN         RAIN      73  72  96 SW12      30.00R FOG
WEST PLAINS    LGT RAIN  79  74  84 CALM      30.04R

$$

IAZ060-094-KSZ022-034>040-054-083-096-NEZ052-066-093-270000-
...KANSAS...SOUTHEAST NEBRASKA AND IOWA...

CITY           SKY/WX    TMP DP  RH WIND       PRES   REMARKS
TOPEKA         SUNNY     88  66  48 SE7       29.97S HX  90
MANHATTAN      SUNNY     87  68  52 E6        29.97S HX  90
EMPORIA        SUNNY     86  68  54 E7        29.98S
CHANUTE        CLOUDY    88  74  63 N9        29.96S HX  96
WICHITA        MOSUNNY   89  70  53 E13G18    29.95S HX  94
OMAHA          MOSUNNY   86  66  51 E9        30.01S
LINCOLN        SUNNY     88  63  43 E8        30.01S
FALLS CITY     SUNNY     86  67  52 E5        29.98F
LAMONI         SUNNY     84  67  56 VRB6      30.02R
DES MOINES     MOSUNNY   86  63  45 SE8       30.02R

$$




USA.gov is the U.S. government's official web portal to all federal, state and local government web resources and services.